Orlando International Airport Orlando US
ICAO: KMCO
IATA: MCO
Category: Large
Scheduled Services: Yes

Elevation: 96 ft
TransAlt. 18000 ft.

Airport Communications:
APP/DEP:119.4
ATIS:121.25
CLNC DEL:134.7
GND:121.8
AR OPS:41.5
ST PETERSBURG RDO:122.1
ST PETERSBURG RDO:122.2
TWR:118.45
UNICOM:122.95

KMCO Zoom In..

If you have problems with the map follow the link
https://www.worldairports.se/pages/airport.php?
ICAO=KMCO

Runways:

(A) RW 17L length 9001 ft width 150 ft
ILS 110.95 / hdg 185

(B) RW 17R length 10000 ft width 150 ft
ILS 111.75 / hdg 185

(C) RW 18L length 12005 ft width 200 ft
---- / hdg 185

(D) RW 18R length 12005 ft width 200 ft
ILS 111.90 / hdg 185

(E) RW 35L length 10000 ft width 150 ft
ILS 110.50 / hdg 5

(F) RW 35R length 9001 ft width 150 ft
ILS 111.15 / hdg 5

(G) RW 36L length 12005 ft width 200 ft
---- / hdg 5

(H) RW 36R length 12005 ft width 200 ft
ILS 110.70 / hdg 5

Location; KMCO
Day. 08 / Time. 17.53 Zulu
* Altimeter: 30.15
* Temperature: 26° c. 78.8°f.
* Wind from: 100° Speed 10 kn.
Dewpoint: 15° c.
Visibility: 10 Statute Miles.
Clouds: Few 4400 ft.
Clouds: Scattered 6000 ft.

KMCO 081753Z 10010KT 10SM FEW044 SCT060 26/15 A3015 RMK AO2 SLP208 T02560150 10272 20156 58018


Wind From 100°
Speed 10 kn.

 
 
jpsmedia worldairports.se 2019   terms of use